Location: Newark
(37.3394°N, 6.0261°W)
Time: 01:01:28
(UTC+00:00)

Envisat - Pass Details

Date: 24 March 2019
Orbit: 764 x 766 km, 98.2° (Epoch: 23 April)

Event Time Altitude Azimuth Distance (km) Brightness Sun altitude
Rises 19:01:00 0° 166° (SSE) 3,218 6.0 -5.1°
Reaches altitude 10° 19:03:17 10° 166° (SSE) 2,295 5.3 -5.6°
Maximum altitude 19:08:21 89° 251° (WSW) 771 3.1 -6.6°
Drops below altitude 10° 19:13:28 10° 347° (NNW) 2,310 5.8 -7.6°
Sets 19:15:47 0° 348° (NNW) 3,240 6.5 -8.1°
